Location: Byhalia Creek
(34.8270°N, 89.8040°W)
Time: 08:35:55
(UTC+00:00)

SL-16 R/B - Pass Details

Date: 22 April 2026
Orbit: 841 x 845 km, 71.0° (Epoch: 15 May)

Event Time Altitude Azimuth Distance (km) Brightness Sun altitude
Rises 08:06:04 0° 341° (NNW) 3,408 5.7 -34.0°
Reaches altitude 10° 08:08:32 10° 343° (NNW) 2,470 4.9 -33.6°
Enters shadow 08:12:03 39° 353° (N) 1,247 3.2 -33.2°
